Location: Nitra
(0.0000°N, 18.0833°E)
Time: 17:20:02
(UTC+02:00)

Vanguard 1 - All Passes

Search period start: 31 March 2023 00:00
Search period end: 10 April 2023 00:00
Orbit: 648 x 3832 km, 34.3° (Epoch: 30 March)

Date Brightness Start Highest point End Pass type
(mag) Time Alt. Az. Time Alt. Az. Time Alt. Az.
31 Mar - 00:05:26 10° W 00:12:43 28° SW 00:17:32 10° SSE visible
31 Mar - 07:21:02 10° SSE 07:24:49 13° SE 07:29:30 10° ESE daylight
31 Mar - 09:36:25 10° SW 09:46:25 65° SE 10:05:00 10° ENE daylight
31 Mar - 11:57:33 10° WSW 12:11:26 52° NNW 12:33:16 10° NE daylight
31 Mar - 14:26:14 10° WNW 14:42:03 25° NNW 14:59:39 10° NNE daylight
31 Mar - 17:02:46 10° NW 17:16:59 19° N 17:28:47 10° NE daylight
31 Mar - 19:32:49 10° NNW 19:48:03 30° NNE 19:57:38 10° ENE visible
31 Mar - 21:59:10 10° NW 22:12:48 80° NE 22:19:55 10° ESE visible
01 Apr - 00:28:17 10° W 00:33:05 17° SW 00:36:45 10° S night (unlit)
01 Apr - 07:39:33 10° S 07:45:30 21° SE 07:54:12 10° E daylight
01 Apr - 09:56:45 10° SW 10:07:09 84° SE 10:26:42 10° NE daylight
01 Apr - 12:19:11 10° W 12:33:16 42° NNW 12:54:11 10° NE daylight
01 Apr - 14:49:59 10° WNW 15:05:14 22° NNW 15:21:16 10° NNE daylight
01 Apr - 17:25:20 10° NNW 17:40:14 21° N 17:51:57 10° NE daylight
01 Apr - 19:53:40 10° NW 20:09:53 38° NNE 20:19:25 10° E visible
01 Apr - 22:20:29 10° WNW 22:33:30 73° SW 22:40:21 10° SE visible
02 Apr - 07:58:57 10° SSW 08:06:00 31° SE 08:17:35 10° E daylight
02 Apr - 10:17:21 10° WSW 10:28:06 77° NW 10:48:05 10° NE daylight
02 Apr - 12:41:16 10° W 12:55:24 34° NNW 13:15:09 10° NE daylight
02 Apr - 15:13:54 10° NW 15:28:43 20° N 15:43:29 10° NE daylight
02 Apr - 17:47:09 10° NNW 18:03:11 24° NNE 18:15:02 10° ENE daylight
02 Apr - 20:14:33 10° NW 20:31:27 49° NNE 20:40:47 10° ESE visible
02 Apr - 22:42:11 10° WNW 22:53:57 49° SW 23:00:30 10° SSE visible
03 Apr - 08:18:44 10° SSW 08:26:25 45° SE 08:40:11 10° ENE daylight
03 Apr - 10:38:14 10° WSW 10:49:19 60° NNW 11:09:13 10° NE daylight
03 Apr - 13:03:51 10° WNW 13:17:53 28° NNW 13:36:16 10° NNE daylight
03 Apr - 15:37:31 10° NW 15:52:22 20° N 16:06:23 10° NE daylight
03 Apr - 18:08:28 10° NNW 18:25:46 28° NNE 18:37:44 10° ENE daylight
03 Apr - 20:35:32 10° NW 20:52:44 65° NNE 21:01:48 10° ESE visible
03 Apr - 23:04:23 10° WNW 23:14:19 33° SW 23:20:21 10° SSE visible
04 Apr - 08:38:49 10° SW 08:46:53 63° SE 09:02:13 10° ENE daylight
04 Apr - 10:59:27 10° W 11:10:49 47° NNW 11:30:12 10° NE daylight
04 Apr - 13:26:55 10° WNW 13:40:44 24° NNW 13:57:43 10° NNE daylight
04 Apr - 16:00:29 10° NW 16:15:56 20° N 16:29:47 10° NE daylight
04 Apr - 18:29:31 10° NW 18:48:00 35° NNE 18:59:58 10° E daylight
04 Apr - 20:56:42 10° NW 21:13:44 85° NE 21:22:31 10° SE visible
04 Apr - 23:27:18 10° W 23:34:41 21° SW 23:39:47 10° S visible
05 Apr - 06:42:38 10° S 06:46:50 17° SE 06:52:26 10° E daylight
05 Apr - 08:59:07 10° SW 09:07:31 86° SE 09:23:50 10° NE daylight
05 Apr - 11:21:02 10° W 11:32:36 38° NNW 11:51:08 10° NE daylight
05 Apr - 13:50:19 10° NW 14:03:56 21° N 14:19:42 10° NE daylight
05 Apr - 16:22:42 10° NNW 16:39:17 23° NNE 16:53:18 10° ENE daylight
05 Apr - 18:50:27 10° NW 19:09:55 44° NNE 19:21:44 10° E visible
05 Apr - 21:18:11 10° WNW 21:34:28 73° SW 21:42:57 10° SE visible
05 Apr - 23:51:34 10° WSW 23:55:12 13° SW 23:58:13 10° SSW visible
06 Apr - 07:01:43 10° SSW 07:07:15 27° SE 07:15:47 10° E daylight
06 Apr - 09:19:43 10° WSW 09:28:24 72° NW 09:45:07 10° NE daylight
06 Apr - 11:43:03 10° WNW 11:54:41 30° NNW 12:12:07 10° NE daylight
06 Apr - 14:13:45 10° NW 14:27:26 20° N 14:42:24 10° NE daylight
06 Apr - 16:44:19 10° NNW 17:02:18 26° NNE 17:16:34 10° ENE daylight
06 Apr - 19:11:24 10° NW 19:31:33 55° NNE 19:43:05 10° ESE visible
06 Apr - 21:40:03 10° WNW 21:55:01 53° SW 22:03:08 10° SE visible
07 Apr - 07:21:24 10° SSW 07:27:35 41° SE 07:38:14 10° ENE daylight
07 Apr - 09:40:35 10° WSW 09:49:33 54° NNW 10:06:09 10° NE daylight
07 Apr - 12:05:33 10° WNW 12:17:07 25° NNW 12:33:17 10° NNE daylight
07 Apr - 14:36:50 10° NW 14:51:03 20° N 15:05:52 10° NE daylight
07 Apr - 17:05:32 10° NW 17:24:56 32° NNE 17:39:23 10° E daylight
07 Apr - 19:32:28 10° NW 19:52:53 70° NE 20:04:06 10° ESE visible
07 Apr - 22:02:24 10° WNW 22:15:27 37° SW 22:23:03 10° SSE visible
08 Apr - 07:41:26 10° SW 07:47:59 62° SE 08:00:06 10° ENE daylight
08 Apr - 10:01:48 10° W 10:10:59 41° NNW 10:27:02 10° NE daylight
08 Apr - 12:28:28 10° NW 12:39:53 21° N 12:54:52 10° NNE daylight
08 Apr - 14:59:15 10° NNW 15:14:37 21° N 15:29:47 10° NE daylight
08 Apr - 17:26:32 10° NW 17:47:12 39° NNE 18:01:42 10° E daylight
08 Apr - 19:53:44 10° NW 20:13:57 88° NE 20:24:49 10° SE visible
08 Apr - 22:25:26 10° W 22:35:55 26° SW 22:42:40 10° S visible
09 Apr - 05:45:59 10° SSE 05:48:28 13° SE 05:51:23 10° ESE visible
09 Apr - 08:01:44 10° SW 08:08:32 89° SSE 08:21:32 10° NE daylight
09 Apr - 10:23:25 10° W 10:32:41 32° NNW 10:47:51 10° NE daylight
09 Apr - 12:51:37 10° NW 13:02:59 19° N 13:17:06 10° NE daylight
09 Apr - 15:21:03 10° NNW 15:37:56 24° NNE 15:53:43 10° ENE daylight
09 Apr - 17:47:26 10° NW 18:09:09 48° NNE 18:23:31 10° E daylight
09 Apr - 20:15:17 10° WNW 20:34:47 73° SW 20:45:17 10° SE visible
09 Apr - 22:49:25 10° WSW 22:56:31 17° SW 23:01:44 10° S visible
